パンスターズ彗星

C/2016 M1 ( PanSTARRS )

English version
Home page
Updated on November 7, 2017

---------------------------------------------------------------------

・ プロフィール

発見日 2016年6月22日
発見光度 19.7等
発見者 Pan-STARRS 1 telescope (Haleakala)

・ 写真集

・ 軌道要素

Epoch 2018 Aug. 30.0 TT = JDT 2458360.5
T 2018 Aug. 10.17942 TT                                 MPCW
q   2.2104995            (2000.0)            P               Q
z  +0.0004154      Peri.  209.82641     +0.02467890     -0.03424824
 +/-0.0000017      Node    92.20322     -0.59785285     +0.80049391
e   0.9990817      Incl.   90.99985     -0.80122589     -0.59836157
From 1103 observations 2016 June 22-2017 July 6, mean residual 0".4.

・ 星図

・ 光度変化

        m1 = 6.5 + 5 logΔ + 8.5 log r

---------------------------------------------------------------------

軌道要素はM.P.E.C. 2017-N58に掲載されたものです。
星図はステラナビゲータ Ver.10 (アストロアーツ) で作成したものです。
光度グラフはComet for Windowsで作成したものです。

---------------------------------------------------------------------

Copyright(C) Seiichi Yoshida (comet@aerith.net). All rights reserved.